Home > Weather > Melbourne > Past weeks

Flag for Australia Weather for the Past 2 Weeks in Melbourne, Victoria, Australia

Now
66 °F

Passing clouds.


Feels Like: 66 °F
Forecast: 52 / 67 °F
Wind: 24 mph from North

Location: Melbourne Airport

Current Time: May 1, 2016 at 2:03:43 AM

Latest Report: May 1, 2016 at 1:00 AM


Visibility: N/A

Pressure: 29.68 "Hg

Humidity: 78%

Dew Point: 59 °F

Location of MelbourneLocation

Historic Weather in Melbourne — Graph

°F

Melbourne Temperature Yesterday

Maximum temperature yesterday: 73 °F (at 2:30 PM)
Minimum temperature yesterday: 59 °F (at 1:00 AM)
Average temperature yesterday: 65 °F

High & Low Weather Summary for the Past Weeks

 TemperatureHumidityPressure
High82 °F (Apr 20, 1:30 PM)100% (Apr 16, 7:30 PM)30.48 "Hg (Apr 16, 7:30 PM)
Low46 °F (Apr 18, 6:30 AM)21% (Apr 20, 2:00 PM)29.68 "Hg (May 1, 1:00 AM)
Average63 °F63%30.16 "Hg
* Reported Apr 16 1:00 AM — May 1 1:00 AM, Melbourne, Weather by CustomWeather, © 2016

Note: Actual official high and low records may vary slightly from our data, if they occured in-between our weather recording intervals... More about our weather records

Advertising

Melbourne Weather History for the Previous 24 Hours

Scroll right to see more
 ConditionsComfort  
Time TempWeatherWind HumidityBarometerVisibility
1:00 AM
Sun, May 1
66 °FPassing clouds.24 mph78%29.68 "HgN/A
12:30 AM64 °FPassing clouds.24 mph83%29.71 "HgN/A
12:00 AM66 °FPassing clouds.28 mph78%29.71 "HgN/A
11:30 PM
Sat, Apr 30
66 °FPassing clouds.29 mph78%29.71 "HgN/A
11:00 PM66 °FPassing clouds.30 mph78%29.74 "HgN/A
10:46 PM66 °FPassing clouds.31 mph78%29.77 "HgN/A
10:04 PM66 °FPassing clouds.30 mph78%29.77 "HgN/A
9:30 PM66 °FPassing clouds.29 mph78%29.77 "HgN/A
9:00 PM66 °FPassing clouds.21 mph78%29.80 "HgN/A
8:30 PM66 °FPassing clouds.17 mph78%29.83 "HgN/A
8:00 PM66 °FPassing clouds.15 mph78%29.83 "HgN/A
7:30 PM66 °FPassing clouds.15 mph78%29.83 "HgN/A
7:00 PM66 °FPassing clouds.15 mph78%29.83 "HgN/A
6:00 PM66 °FPassing clouds.14 mph78%29.83 "HgN/A
5:00 PM70 °FPassing clouds.17 mph64%29.83 "HgN/A
4:30 PM72 °FPassing clouds.22 mph61%29.83 "HgN/A
4:00 PM72 °FScattered clouds.20 mph61%29.86 "HgN/A
3:00 PM72 °FPartly sunny.22 mph61%29.86 "HgN/A
2:30 PM73 °FScattered clouds.22 mph53%29.86 "HgN/A
2:00 PM72 °FScattered clouds.20 mph61%29.86 "HgN/A
1:00 PM72 °FPassing clouds.21 mph65%29.89 "HgN/A
12:30 PM70 °FPassing clouds.22 mph69%29.92 "HgN/A
11:30 AM68 °FScattered clouds.21 mph73%29.95 "HgN/A
11:00 AM70 °FPassing clouds.22 mph69%29.95 "HgN/A
9:30 AM68 °FScattered clouds.17 mph73%29.98 "HgN/A
9:00 AM66 °FPartly sunny.20 mph78%29.98 "HgN/A
8:00 AM63 °FScattered clouds.20 mph88%29.98 "HgN/A
7:00 AM61 °FPassing clouds.14 mph94%29.95 "HgN/A
6:00 AM61 °FSunny.13 mph94%29.95 "Hg10 mi
5:30 AM61 °FPassing clouds.13 mph88%29.95 "HgN/A
5:00 AM59 °FClear.14 mph94%29.92 "Hg10 mi
4:30 AM61 °FClear.14 mph88%29.92 "Hg10 mi
4:00 AM61 °FClear.12 mph88%29.92 "Hg10 mi
3:30 AM61 °FPassing clouds.15 mph88%29.92 "HgN/A
3:00 AM61 °FClear.12 mph88%29.92 "Hg10 mi
2:30 AM63 °FClear.16 mph83%29.92 "Hg10 mi
2:00 AM63 °FClear.13 mph83%29.92 "Hg10 mi
Weather by CustomWeather, © 2016

See weather overviewHow to use our weather pages